| time (UTC) | temp F | wind direction | speed MPH | gust MPH | rain 1hr in | rain 24hr in | rain mn in | humidity % | barometer mb |
| 20260906024531 | 86 | 173 | 2.0 | 6.0 | 0.00 | 0.00 | 0.00 | 56 | 1009.4 |
| 20260906023028 | 87 | 207 | 3.0 | 6.0 | 0.00 | 0.00 | 0.00 | 55 | 1009.2 |
| 20260906021528 | 88 | 156 | 3.0 | 7.0 | 0.00 | 0.00 | 0.00 | 54 | 1008.9 |
| 20260906020028 | 88 | 167 | 4.0 | 8.0 | 0.00 | 0.00 | 0.00 | 54 | 1008.7 |
| 20260906014528 | 89 | 177 | 3.0 | 6.0 | 0.00 | 0.00 | 0.00 | 52 | 1008.5 |
| 20260906013026 | 90 | 180 | 4.0 | 8.0 | 0.00 | 0.00 | 0.00 | 51 | 1008.4 |
| 20260906011534 | 91 | 165 | 6.0 | 12.0 | 0.00 | 0.00 | 0.00 | 48 | 1008.1 |
| 20260906010025 | 92 | 149 | 3.0 | 11.0 | 0.00 | 0.00 | 0.00 | 45 | 1007.9 |
| 20260906004524 | 93 | 142 | 6.0 | 10.0 | 0.00 | 0.00 | 0.00 | 44 | 1008.0 |
| 20260906003024 | 94 | 128 | 3.0 | 11.0 | 0.00 | 0.00 | 0.00 | 43 | 1008.0 |
| 20260906001523 | 94 | 178 | 2.0 | 11.0 | 0.00 | 0.00 | 0.00 | 42 | 1008.0 |
| 20260906000023 | 95 | 130 | 5.0 | 12.0 | 0.00 | 0.00 | 0.00 | 41 | 1007.9 |
| 20260905234522 | 95 | 84 | 3.0 | 8.0 | 0.00 | 0.00 | 0.00 | 41 | 1007.8 |
| 20260905233021 | 95 | 81 | 3.0 | 10.0 | 0.00 | 0.00 | 0.00 | 42 | 1007.7 |
| 20260905231520 | 96 | 128 | 5.0 | 11.0 | 0.00 | 0.00 | 0.00 | 41 | 1007.5 |
| 20260905230121 | 96 | 69 | 6.0 | 11.0 | 0.00 | 0.00 | 0.00 | 42 | 1007.5 |
| 20260905224530 | 97 | 68 | 5.0 | 9.0 | 0.00 | 0.00 | 0.00 | 42 | 1007.5 |
| 20260905223017 | 97 | 86 | 2.0 | 13.0 | 0.00 | 0.00 | 0.00 | 42 | 1007.8 |
| 20260905221518 | 98 | 96 | 6.0 | 12.0 | 0.00 | 0.00 | 0.00 | 40 | 1007.8 |
| 20260905220015 | 97 | 122 | 2.0 | 8.0 | 0.00 | 0.00 | 0.00 | 42 | 1007.8 |
| 20260905214514 | 98 | 152 | 3.0 | 12.0 | 0.00 | 0.00 | 0.00 | 41 | 1008.0 |
| 20260905213012 | 97 | 67 | 5.0 | 13.0 | 0.00 | 0.00 | 0.00 | 42 | 1008.1 |
| 20260905211510 | 97 | 87 | 4.0 | 10.0 | 0.00 | 0.00 | 0.00 | 42 | 1008.3 |
| 20260905210009 | 97 | 114 | 3.0 | 10.0 | 0.00 | 0.02 | 0.00 | 42 | 1008.4 |
| 20260905204508 | 97 | 130 | 3.0 | 9.0 | 0.00 | 0.02 | 0.00 | 42 | 1008.6 |
| 20260905203004 | 97 | 177 | 2.0 | 4.0 | 0.00 | 0.02 | 0.00 | 42 | 1008.7 |
| 20260905201506 | 97 | 96 | 5.0 | 10.0 | 0.00 | 0.02 | 0.00 | 42 | 1009.2 |
| 20260905194555 | 94 | 13 | 1.0 | 4.0 | 0.00 | 0.02 | 0.00 | 49 | 1009.9 |
| 20260905193054 | 92 | 284 | 0.0 | 5.0 | 0.00 | 0.02 | 0.00 | 51 | 1010.1 |
| 20260905191552 | 92 | 306 | 1.0 | 5.0 | 0.00 | 0.02 | 0.00 | 50 | 1010.3 |
| 20260905190053 | 94 | 220 | 3.0 | 8.0 | 0.00 | 0.02 | 0.00 | 49 | 1010.6 |
| 20260905184551 | 93 | 28 | 3.0 | 7.0 | 0.00 | 0.02 | 0.00 | 49 | 1010.8 |
| 20260905183056 | 93 | 100 | 5.0 | 10.0 | 0.00 | 0.02 | 0.00 | 48 | 1010.9 |
| 20260905181604 | 94 | 82 | 2.0 | 8.0 | 0.00 | 0.02 | 0.00 | 48 | 1011.0 |
| 20260905180046 | 94 | 157 | 1.0 | 9.0 | 0.00 | 0.02 | 0.00 | 51 | 1011.2 |
| 20260905174549 | 93 | 84 | 1.0 | 11.0 | 0.00 | 0.02 | 0.00 | 50 | 1011.4 |
| 20260905173041 | 91 | 113 | 0.0 | 8.0 | 0.00 | 0.02 | 0.00 | 53 | 1011.4 |
| 20260905171543 | 91 | 81 | 4.0 | 11.0 | 0.00 | 0.02 | 0.00 | 54 | 1011.5 |
| 20260905170037 | 91 | 179 | 4.0 | 7.0 | 0.00 | 0.02 | 0.00 | 59 | 1011.5 |
| 20260905164536 | 90 | 204 | 2.0 | 7.0 | 0.00 | 0.02 | 0.00 | 61 | 1011.5 |
| 20260905163030 | 88 | 211 | 2.0 | 8.0 | 0.00 | 0.02 | 0.00 | 63 | 1011.6 |
| 20260905161528 | 87 | 187 | 4.0 | 8.0 | 0.00 | 0.02 | 0.00 | 65 | 1011.8 |
| 20260905160037 | 86 | 212 | 4.0 | 8.0 | 0.00 | 0.02 | 0.00 | 67 | 1011.9 |
| 20260905154520 | 85 | 192 | 2.0 | 9.0 | 0.00 | 0.02 | 0.00 | 68 | 1011.9 |
| 20260905153021 | 84 | 250 | 6.0 | 10.0 | 0.00 | 0.02 | 0.00 | 70 | 1012.1 |
| 20260905151515 | 83 | 206 | 5.0 | 9.0 | 0.00 | 0.02 | 0.00 | 72 | 1012.0 |
| 20260905150012 | 82 | 209 | 6.0 | 10.0 | 0.00 | 0.02 | 0.00 | 73 | 1012.3 |
| 20260905144508 | 81 | 234 | 5.0 | 10.0 | 0.00 | 0.02 | 0.00 | 75 | 1012.3 |
| 20260905143007 | 80 | 223 | 3.0 | 7.0 | 0.00 | 0.02 | 0.00 | 75 | 1012.2 |
| 20260905141503 | 79 | 184 | 4.0 | 8.0 | 0.00 | 0.02 | 0.00 | 76 | 1012.1 |
| 20260905140058 | 77 | 204 | 4.0 | 7.0 | 0.00 | 0.02 | 0.00 | 78 | 1012.1 |
| 20260905134603 | 75 | 243 | 2.0 | 7.0 | 0.00 | 0.02 | 0.00 | 81 | 1011.9 |
| 20260905133055 | 73 | 283 | 0.0 | 3.0 | 0.00 | 0.02 | 0.00 | 85 | 1011.5 |
| 20260905131549 | 72 | 283 | 0.0 | 2.0 | 0.00 | 0.02 | 0.00 | 86 | 1011.5 |
| 20260905130147 | 71 | 282 | 0.0 | 0.0 | 0.00 | 0.02 | 0.00 | 86 | 1011.4 |
| 20260905124550 | 70 | 282 | 0.0 | 0.0 | 0.00 | 0.02 | 0.00 | 87 | 1011.2 |
| 20260905123046 | 70 | 284 | 0.0 | 0.0 | 0.00 | 0.02 | 0.00 | 86 | 1011.1 |
| 20260905121545 | 70 | 284 | 0.0 | 3.0 | 0.00 | 0.02 | 0.00 | 86 | 1010.9 |
| 20260905120044 | 71 | 284 | 1.0 | 2.0 | 0.00 | 0.02 | 0.00 | 84 | 1011.1 |
| 20260905114542 | 72 | 284 | 1.0 | 4.0 | 0.00 | 0.02 | 0.00 | 83 | 1011.1 |
| 20260905113042 | 73 | 271 | 2.0 | 4.0 | 0.00 | 0.02 | 0.00 | 81 | 1010.9 |
| 20260905111547 | 73 | 252 | 0.0 | 2.0 | 0.00 | 0.02 | 0.00 | 80 | 1010.9 |
| 20260905110041 | 74 | 252 | 1.0 | 4.0 | 0.00 | 0.02 | 0.00 | 79 | 1010.9 |
| 20260905104541 | 75 | 236 | 2.0 | 5.0 | 0.00 | 0.02 | 0.00 | 77 | 1010.9 |
| 20260905103045 | 75 | 213 | 2.0 | 7.0 | 0.00 | 0.02 | 0.00 | 78 | 1010.9 |
| 20260905101538 | 74 | 211 | 3.0 | 8.0 | 0.00 | 0.02 | 0.00 | 79 | 1010.9 |
| 20260905100035 | 73 | 183 | 3.0 | 10.0 | 0.00 | 0.02 | 0.00 | 82 | 1010.8 |
| 20260905094537 | 72 | 175 | 1.0 | 4.0 | 0.00 | 0.02 | 0.00 | 83 | 1010.9 |
| 20260905093033 | 72 | 175 | 0.0 | 2.0 | 0.00 | 0.02 | 0.00 | 83 | 1011.0 |
| 20260905091606 | 72 | 175 | 0.0 | 2.0 | 0.00 | 0.02 | 0.00 | 83 | 1010.9 |
| 20260905090032 | 72 | 175 | 1.0 | 3.0 | 0.00 | 0.02 | 0.00 | 83 | 1010.9 |
| 20260905084531 | 72 | 175 | 0.0 | 4.0 | 0.00 | 0.02 | 0.00 | 85 | 1010.9 |
| 20260905083030 | 71 | 175 | 0.0 | 2.0 | 0.00 | 0.02 | 0.00 | 86 | 1010.8 |
| 20260905081529 | 71 | 223 | 0.0 | 0.0 | 0.00 | 0.02 | 0.00 | 86 | 1010.9 |
| 20260905080133 | 71 | 223 | 0.0 | 0.0 | 0.00 | 0.02 | 0.00 | 86 | 1010.9 |
| 20260905074529 | 71 | 223 | 1.0 | 5.0 | 0.00 | 0.02 | 0.00 | 87 | 1011.0 |
| 20260905073030 | 71 | 221 | 0.0 | 2.0 | 0.00 | 0.02 | 0.00 | 87 | 1011.0 |
| 20260905071528 | 71 | 221 | 0.0 | 0.0 | 0.00 | 0.02 | 0.00 | 87 | 1011.2 |
| 20260905070026 | 71 | 221 | 0.0 | 2.0 | 0.00 | 0.02 | 0.00 | 87 | 1011.2 |
| 20260905064525 | 71 | 220 | 0.0 | 2.0 | 0.00 | 0.02 | 0.00 | 87 | 1011.2 |
| 20260905063023 | 72 | 219 | 1.0 | 3.0 | 0.00 | 0.02 | 0.00 | 86 | 1011.0 |
| 20260905061521 | 72 | 182 | 0.0 | 2.0 | 0.00 | 0.02 | 0.00 | 85 | 1010.9 |
| 20260905060018 | 72 | 180 | 0.0 | 2.0 | 0.00 | 0.02 | 0.00 | 84 | 1010.6 |
| 20260905054518 | 73 | 180 | 0.0 | 0.0 | 0.00 | 0.02 | 0.00 | 83 | 1010.7 |
| 20260905053013 | 73 | 180 | 0.0 | 1.0 | 0.00 | 0.02 | 0.00 | 82 | 1010.6 |
| 20260905051513 | 73 | 180 | 0.0 | 1.0 | 0.00 | 0.02 | 0.00 | 81 | 1010.4 |
| 20260905050008 | 74 | 180 | 0.0 | 3.0 | 0.00 | 0.02 | 0.02 | 81 | 1010.6 |
| 20260905044506 | 74 | 187 | 2.0 | 5.0 | 0.00 | 0.02 | 0.02 | 81 | 1010.6 |
| 20260905043012 | 74 | 211 | 1.0 | 3.0 | 0.00 | 0.02 | 0.02 | 80 | 1010.7 |
| 20260905041503 | 75 | 220 | 1.0 | 3.0 | 0.00 | 0.02 | 0.02 | 78 | 1010.7 |
| 20260905040005 | 75 | 225 | 2.0 | 4.0 | 0.00 | 0.02 | 0.02 | 77 | 1010.5 |
| 20260905034611 | 76 | 228 | 0.0 | 2.0 | 0.00 | 0.02 | 0.02 | 75 | 1010.5 |
| 20260905033101 | 77 | 228 | 0.0 | 2.0 | 0.00 | 0.02 | 0.02 | 73 | 1010.7 |
| 20260905031611 | 77 | 228 | 2.0 | 4.0 | 0.00 | 0.02 | 0.02 | 73 | 1010.6 |
| 20260905030058 | 78 | 227 | 3.0 | 6.0 | 0.00 | 0.02 | 0.02 | 72 | 1010.4 |